Time,TemperatureF,DewpointF,PressureIn,WindDirection,WindDirectionDegrees,WindSpeedMPH,WindSpeedGustMPH,Humidity,HourlyPrecipIn,Conditions,Clouds,dailyrainin,SolarRadiationWatts/m^2,SoftwareType,DateUTC
2013-02-23 00:21:00,44.0,20.0,30.16,NW,317,6.0,26.0,38,0.00,,,0.00,0.000000,,2013-02-23 08:21:00,
2013-02-23 00:31:00,44.0,20.0,30.16,NW,317,6.0,26.0,38,0.00,,,0.00,0.000000,,2013-02-23 08:31:00,
2013-02-23 00:41:00,44.0,20.0,30.16,NW,317,6.0,26.0,38,0.00,,,0.00,0.000000,,2013-02-23 08:41:00,
2013-02-23 00:52:00,44.0,20.0,30.16,NW,317,6.0,26.0,38,0.00,,,0.00,0.000000,,2013-02-23 08:52:00,
2013-02-23 01:11:00,44.0,19.0,30.15,NW,309,8.0,20.0,37,0.00,,,0.00,0.000000,,2013-02-23 09:11:00,
2013-02-23 01:21:00,44.0,19.0,30.15,NW,309,8.0,20.0,37,0.00,,,0.00,0.000000,,2013-02-23 09:21:00,
2013-02-23 01:31:00,44.0,19.0,30.15,NW,309,8.0,20.0,37,0.00,,,0.00,0.000000,,2013-02-23 09:31:00,
2013-02-23 01:41:00,44.0,19.0,30.15,NW,309,8.0,20.0,37,0.00,,,0.00,0.000000,,2013-02-23 09:41:00,
2013-02-23 01:51:00,44.0,19.0,30.15,NW,309,8.0,20.0,37,0.00,,,0.00,0.000000,,2013-02-23 09:51:00,
2013-02-23 02:21:00,43.0,19.0,30.14,NW,308,7.0,13.0,37,0.00,,,0.00,0.000000,,2013-02-23 10:21:00,
2013-02-23 02:31:00,43.0,19.0,30.14,NW,308,7.0,13.0,37,0.00,,,0.00,0.000000,,2013-02-23 10:31:00,
2013-02-23 02:41:00,43.0,19.0,30.14,NW,308,7.0,13.0,37,0.00,,,0.00,0.000000,,2013-02-23 10:41:00,
2013-02-23 02:51:00,43.0,19.0,30.14,NW,308,7.0,13.0,37,0.00,,,0.00,0.000000,,2013-02-23 10:51:00,
2013-02-23 03:21:00,42.0,21.0,30.12,NW,322,9.0,9.0,42,0.00,,,0.00,0.000000,,2013-02-23 11:21:00,
2013-02-23 03:32:00,42.0,21.0,30.12,NW,322,9.0,9.0,42,0.00,,,0.00,0.000000,,2013-02-23 11:32:00,
2013-02-23 03:41:00,42.0,21.0,30.12,NW,322,9.0,9.0,42,0.00,,,0.00,0.000000,,2013-02-23 11:41:00,
2013-02-23 03:52:00,42.0,21.0,30.12,NW,322,9.0,9.0,42,0.00,,,0.00,0.000000,,2013-02-23 11:52:00,
2013-02-23 04:21:00,40.0,21.0,30.11,NNW,330,17.0,17.0,46,0.00,,,0.00,0.000000,,2013-02-23 12:21:00,
2013-02-23 04:32:00,40.0,21.0,30.11,NNW,330,17.0,17.0,46,0.00,,,0.00,0.000000,,2013-02-23 12:32:00,
2013-02-23 04:42:00,40.0,21.0,30.11,NNW,330,17.0,17.0,46,0.00,,,0.00,0.000000,,2013-02-23 12:42:00,
2013-02-23 04:52:00,40.0,21.0,30.11,NNW,330,17.0,17.0,46,0.00,,,0.00,0.000000,,2013-02-23 12:52:00,
2013-02-23 05:22:00,42.0,22.0,30.09,NNW,336,15.0,22.0,45,0.00,,,0.00,0.000000,,2013-02-23 13:22:00,
2013-02-23 05:32:00,42.0,22.0,30.09,NNW,336,15.0,22.0,45,0.00,,,0.00,0.000000,,2013-02-23 13:32:00,
2013-02-23 05:42:00,42.0,22.0,30.09,NNW,336,15.0,22.0,45,0.00,,,0.00,0.000000,,2013-02-23 13:42:00,
2013-02-23 05:51:00,42.0,22.0,30.09,NNW,336,15.0,22.0,45,0.00,,,0.00,0.000000,,2013-02-23 13:51:00,
2013-02-23 06:21:00,43.0,22.0,30.08,NNW,329,14.0,18.0,42,0.00,,,0.00,0.000000,,2013-02-23 14:21:00,
2013-02-23 06:32:00,43.0,22.0,30.08,NNW,329,14.0,18.0,42,0.00,,,0.00,0.000000,,2013-02-23 14:32:00,
2013-02-23 06:41:00,43.0,22.0,30.08,NNW,329,14.0,18.0,42,0.00,,,0.00,0.000000,,2013-02-23 14:41:00,
2013-02-23 06:52:00,43.0,22.0,30.08,NNW,329,14.0,18.0,42,0.00,,,0.00,0.000000,,2013-02-23 14:52:00,
2013-02-23 07:21:00,43.0,22.0,30.09,NW,318,13.0,27.0,42,0.00,,,0.00,6.000000,,2013-02-23 15:21:00,
2013-02-23 07:31:00,43.0,22.0,30.09,NW,318,13.0,27.0,42,0.00,,,0.00,6.000000,,2013-02-23 15:31:00,
2013-02-23 07:41:00,43.0,22.0,30.09,NW,318,13.0,27.0,42,0.00,,,0.00,6.000000,,2013-02-23 15:41:00,
2013-02-23 07:51:00,43.0,22.0,30.09,NW,318,13.0,27.0,42,0.00,,,0.00,6.000000,,2013-02-23 15:51:00,
2013-02-23 08:21:00,47.0,25.0,30.10,NW,320,6.0,34.0,41,0.00,,,0.00,149.000000,,2013-02-23 16:21:00,
2013-02-23 08:31:00,47.0,25.0,30.10,NW,320,6.0,34.0,41,0.00,,,0.00,149.000000,,2013-02-23 16:31:00,
2013-02-23 08:42:00,47.0,25.0,30.10,NW,320,6.0,34.0,41,0.00,,,0.00,149.000000,,2013-02-23 16:42:00,
2013-02-23 08:51:00,47.0,25.0,30.10,NW,320,6.0,34.0,41,0.00,,,0.00,149.000000,,2013-02-23 16:51:00,
2013-02-23 09:21:00,50.0,21.0,30.09,West,277,3.0,21.0,32,0.00,,,0.00,402.000000,,2013-02-23 17:21:00,
2013-02-23 09:31:00,50.0,21.0,30.09,West,277,3.0,21.0,32,0.00,,,0.00,402.000000,,2013-02-23 17:31:00,
2013-02-23 09:41:00,50.0,21.0,30.09,West,277,3.0,21.0,32,0.00,,,0.00,402.000000,,2013-02-23 17:41:00,
2013-02-23 09:52:00,50.0,21.0,30.09,West,277,3.0,21.0,32,0.00,,,0.00,402.000000,,2013-02-23 17:52:00,
2013-02-23 10:21:00,55.0,27.0,30.09,NW,318,2.0,10.0,34,0.00,,,0.00,632.000000,,2013-02-23 18:21:00,
2013-02-23 10:31:00,55.0,27.0,30.09,NW,318,2.0,10.0,34,0.00,,,0.00,632.000000,,2013-02-23 18:31:00,
2013-02-23 10:41:00,55.0,27.0,30.09,NW,318,2.0,10.0,34,0.00,,,0.00,632.000000,,2013-02-23 18:41:00,
2013-02-23 10:51:00,55.0,27.0,30.09,NW,318,2.0,10.0,34,0.00,,,0.00,632.000000,,2013-02-23 18:51:00,
2013-02-23 11:21:00,54.0,26.0,30.08,SSE,159,11.0,11.0,34,0.00,,,0.00,813.000000,,2013-02-23 19:21:00,
2013-02-23 11:32:00,54.0,26.0,30.08,SSE,159,11.0,11.0,34,0.00,,,0.00,813.000000,,2013-02-23 19:32:00,
2013-02-23 11:41:00,54.0,26.0,30.08,SSE,159,11.0,11.0,34,0.00,,,0.00,813.000000,,2013-02-23 19:41:00,
2013-02-23 11:51:00,54.0,26.0,30.08,SSE,159,11.0,11.0,34,0.00,,,0.00,813.000000,,2013-02-23 19:51:00,
2013-02-23 12:21:00,54.0,27.0,30.06,SSE,159,9.0,17.0,35,0.00,,,0.00,921.000000,,2013-02-23 20:21:00,
2013-02-23 12:31:00,54.0,27.0,30.06,SSE,159,9.0,17.0,35,0.00,,,0.00,921.000000,,2013-02-23 20:31:00,
2013-02-23 12:41:00,54.0,27.0,30.06,SSE,159,9.0,17.0,35,0.00,,,0.00,921.000000,,2013-02-23 20:41:00,
2013-02-23 12:52:00,54.0,27.0,30.06,SSE,159,9.0,17.0,35,0.00,,,0.00,921.000000,,2013-02-23 20:52:00,
2013-02-23 13:22:00,55.0,29.0,30.01,SSE,155,11.0,20.0,36,0.00,,,0.00,951.000000,,2013-02-23 21:22:00,
2013-02-23 13:31:00,55.0,29.0,30.01,SSE,155,11.0,20.0,36,0.00,,,0.00,951.000000,,2013-02-23 21:31:00,
2013-02-23 13:41:00,55.0,29.0,30.01,SSE,155,11.0,20.0,36,0.00,,,0.00,951.000000,,2013-02-23 21:41:00,
2013-02-23 13:51:00,55.0,29.0,30.01,SSE,155,11.0,20.0,36,0.00,,,0.00,951.000000,,2013-02-23 21:51:00,
2013-02-23 14:21:00,57.0,30.0,29.98,SSE,149,10.0,21.0,35,0.00,,,0.00,899.000000,,2013-02-23 22:21:00,
2013-02-23 14:31:00,57.0,30.0,29.98,SSE,149,10.0,21.0,35,0.00,,,0.00,899.000000,,2013-02-23 22:31:00,
2013-02-23 14:41:00,57.0,30.0,29.98,SSE,149,10.0,21.0,35,0.00,,,0.00,899.000000,,2013-02-23 22:41:00,
2013-02-23 14:51:00,57.0,30.0,29.98,SSE,149,10.0,21.0,35,0.00,,,0.00,899.000000,,2013-02-23 22:51:00,
2013-02-23 15:21:00,57.0,36.0,29.96,SSE,164,11.0,23.0,45,0.00,,,0.00,766.000000,,2013-02-23 23:21:00,
2013-02-23 15:31:00,57.0,36.0,29.96,SSE,164,11.0,23.0,45,0.00,,,0.00,766.000000,,2013-02-23 23:31:00,
2013-02-23 15:41:00,57.0,36.0,29.96,SSE,164,11.0,23.0,45,0.00,,,0.00,766.000000,,2013-02-23 23:41:00,
2013-02-23 15:52:00,57.0,36.0,29.96,SSE,164,11.0,23.0,45,0.00,,,0.00,766.000000,,2013-02-23 23:52:00,
2013-02-23 16:22:00,53.0,35.0,29.95,SW,227,4.0,22.0,51,0.00,,,0.00,566.000000,,2013-02-24 00:22:00,
2013-02-23 16:32:00,53.0,35.0,29.95,SW,227,4.0,22.0,51,0.00,,,0.00,566.000000,,2013-02-24 00:32:00,
2013-02-23 16:42:00,53.0,35.0,29.95,SW,227,4.0,22.0,51,0.00,,,0.00,566.000000,,2013-02-24 00:42:00,
2013-02-23 16:52:00,53.0,35.0,29.95,SW,227,4.0,22.0,51,0.00,,,0.00,566.000000,,2013-02-24 00:52:00,
2013-02-23 17:22:00,46.0,29.0,29.93,NW,322,20.0,21.0,52,0.00,,,0.00,328.000000,,2013-02-24 01:22:00,
2013-02-23 17:31:00,46.0,29.0,29.93,NW,322,20.0,21.0,52,0.00,,,0.00,328.000000,,2013-02-24 01:31:00,
2013-02-23 17:41:00,46.0,29.0,29.93,NW,322,20.0,21.0,52,0.00,,,0.00,328.000000,,2013-02-24 01:41:00,
2013-02-23 17:51:00,46.0,29.0,29.93,NW,322,20.0,21.0,52,0.00,,,0.00,328.000000,,2013-02-24 01:51:00,
2013-02-23 18:21:00,41.0,26.0,29.92,NNW,330,29.0,30.0,55,0.00,,,0.00,81.000000,,2013-02-24 02:21:00,
2013-02-23 18:32:00,41.0,26.0,29.92,NNW,330,29.0,30.0,55,0.00,,,0.00,81.000000,,2013-02-24 02:32:00,
2013-02-23 18:41:00,41.0,26.0,29.92,NNW,330,29.0,30.0,55,0.00,,,0.00,81.000000,,2013-02-24 02:41:00,
2013-02-23 18:52:00,41.0,26.0,29.92,NNW,330,29.0,30.0,55,0.00,,,0.00,81.000000,,2013-02-24 02:52:00,
2013-02-23 19:21:00,40.0,29.0,29.93,NNW,334,28.0,40.0,64,0.00,,,0.00,0.000000,,2013-02-24 03:21:00,
2013-02-23 19:31:00,40.0,29.0,29.93,NNW,334,28.0,40.0,64,0.00,,,0.00,0.000000,,2013-02-24 03:31:00,
2013-02-23 19:42:00,40.0,29.0,29.93,NNW,334,28.0,40.0,64,0.00,,,0.00,0.000000,,2013-02-24 03:42:00,
2013-02-23 19:52:00,40.0,29.0,29.93,NNW,334,28.0,40.0,64,0.00,,,0.00,0.000000,,2013-02-24 03:52:00,
2013-02-23 20:21:00,38.0,27.0,29.93,North,350,29.0,43.0,63,0.00,,,0.00,0.000000,,2013-02-24 04:21:00,
2013-02-23 20:31:00,38.0,27.0,29.93,North,350,29.0,43.0,63,0.00,,,0.00,0.000000,,2013-02-24 04:31:00,
2013-02-23 20:41:00,38.0,27.0,29.93,North,350,29.0,43.0,63,0.00,,,0.00,0.000000,,2013-02-24 04:41:00,
2013-02-23 20:51:00,38.0,27.0,29.93,North,350,29.0,43.0,63,0.00,,,0.00,0.000000,,2013-02-24 04:51:00,
2013-02-23 21:21:00,37.0,27.0,29.95,North,356,26.0,43.0,67,0.00,,,0.00,0.000000,,2013-02-24 05:21:00,
2013-02-23 21:32:00,37.0,27.0,29.95,North,356,26.0,43.0,67,0.00,,,0.00,0.000000,,2013-02-24 05:32:00,
2013-02-23 21:42:00,37.0,27.0,29.95,North,356,26.0,43.0,67,0.00,,,0.00,0.000000,,2013-02-24 05:42:00,
2013-02-23 21:52:00,37.0,27.0,29.95,North,356,26.0,43.0,67,0.00,,,0.00,0.000000,,2013-02-24 05:52:00,
2013-02-23 22:21:00,37.0,28.0,29.95,North,354,33.0,51.0,71,0.00,,,0.00,0.000000,,2013-02-24 06:21:00,
2013-02-23 22:31:00,37.0,28.0,29.95,North,354,33.0,51.0,71,0.00,,,0.00,0.000000,,2013-02-24 06:31:00,
2013-02-23 22:41:00,37.0,28.0,29.95,North,354,33.0,51.0,71,0.00,,,0.00,0.000000,,2013-02-24 06:41:00,
2013-02-23 22:52:00,37.0,28.0,29.95,North,354,33.0,51.0,71,0.00,,,0.00,0.000000,,2013-02-24 06:52:00,
2013-02-23 23:21:00,37.0,29.0,29.95,North,354,33.0,52.0,74,0.00,,,0.00,0.000000,,2013-02-24 07:21:00,
2013-02-23 23:31:00,37.0,29.0,29.95,North,354,33.0,52.0,74,0.00,,,0.00,0.000000,,2013-02-24 07:31:00,
2013-02-23 23:41:00,37.0,29.0,29.95,North,354,33.0,52.0,74,0.00,,,0.00,0.000000,,2013-02-24 07:41:00,
2013-02-23 23:51:00,37.0,29.0,29.95,North,354,33.0,52.0,74,0.00,,,0.00,0.000000,,2013-02-24 07:51:00,